Погода в Заводоуспенском

Россия / Свердловская область     56°51′41″N   65°01′10″E
темп.,
°C
ветер,
м/с
пор.,
м/с
влажн.,
%
обл.,
%
осадки,
мм/ч
давл.,
гПа
погр.,
м
12 апреля, пн
пн1223:00+4юз4149096 0.0 1033322
02:00+4юз31093100 0.0 1032209
05:00+4зюз3895100 0.0 1032162
08:00+5зюз2699100 0.4 1032162
11:00+7зсз2799100 0.4 1033334
14:00+11сз4763100 0.0 1033936
17:00+10ссз4772100 0.0 1035837
20:00+5зсз24905 0.0 103752
13 апреля, вт
вт1323:00+4ссз39860 0.0 1039156
02:00+2сз24850 0.0 104070
05:00+1сз22880 0.0 104123
08:00+4зсз23770 0.0 1042145
11:00+8з34555 0.0 1042678
14:00+11зюз34470 0.0 1040940
17:00+11зюз46575 0.0 1039777
20:00+6юз378296 0.0 1038134
14 апреля, ср
ср1423:00+5юз31183100 0.0 1036229
02:00+5юз41383100 0.0 1034295
05:00+5юз41285100 0.0 1033293
08:00+7зюз41188100 0.0 1032299
11:00+13з487252 0.0 1031554
14:00+17з46575 0.0 1029981
17:00+17зюз46625 0.0 10281078
20:00+12зюз25855 0.0 102875
15 апреля, чт
чт1523:00+10зюз25895 0.0 102786
02:00+9зсз229110 0.0 102724
05:00+8з22925 0.0 102633
08:00+11з268323 0.0 1026180
11:00+16зюз46605 0.0 1024890
14:00+18зюз46505 0.0 10221304
17:00+18зюз47545 0.0 10201304
20:00+13юз38725 0.0 1019135
16 апреля, пт
пт1623:00+10зюз39785 0.0 1017166
02:00+9з2676100 0.0 1016104
05:00+7з2575100 0.0 101588
08:00+10з3668100 0.0 1014202
11:00+11сз3566100 0.0 1014467
14:00+10с4582100 0.0 1014673
17:00+5ссв5890100 0.4 1014535
20:00+1св61296100 3.8 1015601